Date,TemperatureHighF,TemperatureAvgF,TemperatureLowF,DewpointHighF,DewpointAvgF,DewpointLowF,HumidityHigh,HumidityAvg,HumidityLow,PressureMaxIn,PressureMinIn,WindSpeedMaxMPH,WindSpeedAvgMPH,GustSpeedMaxMPH,PrecipitationSumIn
2013-1-1,32.0,20.1,7.0,28.0,17.3,4.0,100,87,48,29.37,29.21,17,4,19,0.01
2013-1-2,17.0,6.2,-3.0,14.0,3.1,-6.0,100,81,50,29.51,29.36,17,4,26,0.00
2013-1-3,22.0,7.4,-4.0,18.0,5.5,-6.0,100,86,56,29.63,29.49,12,3,16,0.00
2013-1-4,32.0,19.9,2.0,28.0,17.8,4.0,100,89,75,29.49,29.31,17,4,18,0.00
2013-1-5,34.0,24.8,6.0,29.0,16.8,4.0,100,71,38,29.84,29.31,25,4,26,0.00
2013-1-6,28.0,18.1,7.0,28.0,18.5,8.0,100,98,85,29.79,29.50,15,2,15,0.00
2013-1-7,21.0,13.8,4.0,21.0,12.2,4.0,100,89,59,29.96,29.55,16,4,19,0.00
2013-1-8,41.0,29.9,14.0,32.0,25.7,14.0,100,84,57,29.94,29.82,31,5,31,0.23
2013-1-9,40.0,31.5,18.0,38.0,28.6,18.0,100,88,61,30.01,29.45,13,3,13,0.02
2013-1-10,44.0,36.2,27.0,33.0,26.5,21.0,91,67,44,30.04,29.45,19,5,31,0.00
2013-1-11,27.0,24.6,24.0,21.0,19.8,18.0,82,79,74,30.05,30.03,10,2,10,0.00
2013-1-12,40.0,38.9,37.0,38.0,36.7,35.0,98,91,83,29.79,29.71,11,2,11,0.00
2013-1-13,47.0,42.2,37.0,47.0,42.2,37.0,100,100,96,29.75,29.57,17,3,17,0.02
2013-1-14,57.0,42.4,33.0,54.0,36.0,24.0,100,79,50,29.79,29.49,20,5,20,0.01
2013-1-15,38.0,31.3,24.0,29.0,22.9,18.0,99,71,49,29.91,29.77,11,2,12,0.00
2013-1-16,36.0,30.4,26.0,36.0,28.0,18.0,100,89,63,29.87,29.38,17,4,17,0.23
2013-1-17,42.0,29.7,12.0,37.0,20.6,-6.0,100,69,33,29.72,29.36,22,6,22,0.15
2013-1-18,14.0,8.6,1.0,4.0,-3.0,-6.0,81,55,35,29.94,29.67,15,4,22,0.00
2013-1-19,34.0,24.8,10.0,31.0,22.2,4.0,100,88,69,29.92,29.53,19,2,22,0.03
2013-1-20,48.0,36.5,21.0,42.0,28.7,8.0,100,75,40,29.53,29.08,33,6,34,0.05
2013-1-21,24.0,16.8,11.0,16.0,3.8,-6.0,100,53,32,29.61,29.38,19,5,26,0.00
2013-1-22,15.0,8.7,-2.0,16.0,2.0,-6.0,100,70,51,29.50,29.33,21,5,21,0.00
2013-1-23,7.0,1.1,-5.0,-6.0,-8.1,-13.0,73,56,38,29.56,29.47,24,6,27,0.00
2013-1-24,10.0,1.4,-7.0,0.0,-8.4,-13.0,81,62,37,29.55,29.39,24,5,27,0.00
2013-1-25,21.0,9.5,0.0,8.0,1.6,-6.0,82,64,38,29.69,29.53,19,4,25,0.00
2013-1-26,19.0,10.9,3.0,8.0,0.0,-6.0,85,56,33,29.61,29.51,17,4,18,0.00
2013-1-27,23.0,13.5,5.0,11.0,4.3,0.0,82,62,43,29.91,29.60,22,5,23,0.00
2013-1-28,27.0,17.4,6.0,21.0,7.5,0.0,100,66,26,29.95,29.65,12,3,13,0.00
2013-1-29,38.0,26.2,14.0,26.0,20.3,14.0,100,79,47,29.81,29.63,9,2,11,0.00
2013-1-30,54.0,43.8,30.0,54.0,43.4,24.0,100,98,78,29.77,29.12,32,8,32,0.36
2013-1-31,57.0,47.1,31.0,56.5,42.4,14.0,100,85,46,29.12,28.48,44,12,48,0.19